Regional Weather Roundup
Issued by NWS

Home | Current Version | Previous Version | Graphics & Text | Print | Product List | Glossary On
Versions: 1 2 3 4 5 6 7 8 9 10 11 12 13 14 15 16 17 18 19 20 21 22 23 24 25 26 27 28 29 30 31 32 33 34 35 36 37 38 39 40 41 42 43 44 45 46 47 48 49 50
000
ASUS43 KLOT 251908
RWRIL

ILLINOIS REGIONAL WEATHER ROUNDUP
NATIONAL WEATHER SERVICE CHICAGO/ROMEOVILLE IL
200 PM CDT SUN SEP 25 2016

NOTE: "FAIR" INDICATES FEW OR NO CLOUDS BELOW 12,000 FEET WITH NO
SIGNIFICANT WEATHER AND/OR OBSTRUCTIONS TO VISIBILITY.

* THESE STATIONS ARE NOT UNDER NWS QUALITY CONTROL. THEY ALSO MAY NOT
  REPORT WEATHER SUCH AS PRECIPITATION OR FOG.

ILZ001-002-007-009-015-016-024-252000-
NORTHWEST ILLINOIS

CITY           SKY/WX    TMP DP  RH WIND       PRES   REMARKS
MOLINE         CLOUDY    85  65  51 SW18G24   29.95F HX  86
STERLING*      MOSUNNY   85  70  60 SW13      29.94F HX  89
SAVANNA*       CLOUDY    79  73  83 SW6       29.94F HX  82
$$

ILZ003-004-008-010-011-017-018-252000-
NORTH CENTRAL ILLINOIS

CITY           SKY/WX    TMP DP  RH WIND       PRES   REMARKS
ROCKFORD       PTSUNNY   85  68  56 S16       29.93F HX  88
FREEPORT*      PTSUNNY   81  69  67 SW17      29.94F HX  84
ROCHELLE*      PTSUNNY   85  67  53 S18G24    29.94F HX  88
DE KALB*       MOSUNNY   83  69  63 S13       29.96F HX  86
$$

ILZ005-006-012>014-019>023-252000-
NORTHEAST ILLINOIS

CITY           SKY/WX    TMP DP  RH WIND       PRES   REMARKS
CHICAGO-OHARE  PTSUNNY   83  66  56 S13G18    29.97F HX  85
CHICAGO-MIDWAY PTSUNNY   85  65  51 S13G22    29.98F HX  86
AURORA         MOSUNNY   87  68  52 S14G22    29.96F HX  90
LANSING*       MOSUNNY   84  69  60 S10       30.00F HX  88
JOLIET*        HVY RAIN  82  71  68 W17G28    29.98F HX  86
WAUKEGAN       MOSUNNY   75  64  68 SE13      29.98F
DUPAGE AIRPORT SUNNY     84  68  58 S10       29.97F HX  87
KANKAKEE*      MOSUNNY   89  66  46 SW9       29.99F HX  92
WHEELING       SUNNY     83  66  56 S10       29.99F HX  85
MORRIS*        MOSUNNY   85  70  61 SW3       29.96F HX  90
ROMEOVILLE*    PTSUNNY   83  69  62 S6        29.98F HX  87
NORTHERLY ISL    N/A     76  65  68 SE3         N/A
$$

LMZ740>746-252000-
SOUTHERN LAKE MICHIGAN

STATION/POSITION SKY/WX   TEMP    WIND        PRES    VSBY  WAVE
                          AIR SEA DIR/SP/G                  HT/PER
                          (F)     (DEG/KT/KT) (MB)    (MI)  (FT/S)
SOUTHERN BUOY              71 72  140/ 16/ 17 1015.6F         4/ 5
WILMETTE HARBOR            69 65  160/ 10/ 14   N/A           3/ 4
HARRISON CRIB              72     140/ 14/ 15   N/A
BURNHAM HARBOR             76     110/  3/  5   N/A
CALUMET HARBOR             80     170/  5/  9 1016.3F
BURNS HARBOR               81     170/  8/ 17 1017.3F
MICHIGAN CITY              78     150/ 10/ 12   N/A
MICHIGAN CITY 6N           75 69  160/  6/  8   N/A           1
ST. JOSEPH                 75 68  130/  8/ 12 1016.3F         1
$$

ILZ025>027-034>036-040-047-049-050-058-095>099-252000-
WEST-CENTRAL ILLINOIS

CITY           SKY/WX    TMP DP  RH WIND       PRES   REMARKS
QUINCY         PTSUNNY   82  66  58 W13G18    30.02F HX  84
GALESBURG*     MOSUNNY   85  64  49 W16G22    29.98F HX  86
MACOMB*        MOSUNNY   87  63  44 W14       30.01F HX  88
JACKSONVILLE*  MOSUNNY   87  66  49 SW13      30.01F HX  89
PITTSFIELD*    MOSUNNY   86  67  53 W12G18    30.03F HX  89
$$

ILZ028>032-037-038-041>044-048-051>054-059>061-252000-
CENTRAL ILLINOIS

CITY           SKY/WX    TMP DP  RH WIND       PRES   REMARKS
PONTIAC        CLOUDY    85  74  68 SE5       29.98F HX  92
BLOOMINGTON    CLOUDY    88  67  49 W13       30.00F HX  91
DECATUR        CLOUDY    84  70  62 W5        30.00F HX  88
PEORIA         PTSUNNY   86  68  54 SW14      29.97F HX  89
LACON*         CLOUDY    86  68  54 SW9       29.95F HX  90
LINCOLN*       RAIN      81  70  69 SW3       29.99F HX  84
SPRINGFIELD    CLOUDY    90  65  43 SW12G20   30.00F HX  92
TAYLORVILLE    MOSUNNY   92  62  37 SW18      30.00F HX  92
$$

ILZ033-039-045-046-055>057-062-063-252000-
EAST-CENTRAL ILLINOIS

CITY           SKY/WX    TMP DP  RH WIND       PRES   REMARKS
CHAMPAIGN      MOSUNNY   91  64  40 SW12      30.01F HX  92
RANTOUL*       MOSUNNY   90  67  46 S12       30.00F HX  93
MATTOON        PTSUNNY   86  65  49 SW8       30.02F HX  88
PARIS*         PTSUNNY   89  69  51 S6        30.03F HX  93
$$

ILZ079-100>102-252000-
SOUTHWEST ILLINOIS

CITY           SKY/WX    TMP DP  RH WIND       PRES   REMARKS
ALTON          PTSUNNY   88  68  51 SW9       30.03F HX  91
BELLEVILLE     MOSUNNY   87  68  52 SW9       30.01F HX  90
CAHOKIA*       PTSUNNY   89  65  44 MISG      30.01F HX  91
SPARTA*        MOSUNNY   86  70  58 SW10      30.05F HX  91
$$

ILZ064>066-069>071-074>076-080>082-084>086-088>090-092>094-252000-
SOUTH-CENTRAL ILLINOIS

CITY           SKY/WX    TMP DP  RH WIND       PRES   REMARKS
CARBONDALE     MOSUNNY   87  69  54 SW9       30.04F HX  91
CAIRO*         MOSUNNY   90  66  45 CALM      30.03F HX  93
EFFINGHAM*     PTSUNNY   88  70  55 S10G17    30.04F HX  92
MARION         MOSUNNY   90  70  51 S7        30.06F HX  95
MT. VERNON     SUNNY     90  70  51 S7        30.05F HX  95
CENTRALIA*     MOSUNNY   90  69  50 SW10      30.03F HX  95
SALEM*         MOSUNNY   90  67  46 SW10      30.03F HX  94
METROPOLIS*    MOSUNNY   91  67  45 CALM      30.05F HX  94
$$

ILZ067-068-072-073-078-083-087-091-252000-
SOUTHEAST ILLINOIS

CITY           SKY/WX    TMP DP  RH WIND       PRES   REMARKS
LAWRENCEVILLE  MOSUNNY   89  66  46 SW7       30.04F HX  91
FLORA*         MOSUNNY   90  69  50 SW10      30.04F HX  95
FAIRFIELD*     SUNNY     89  68  49 SW6       30.03F HX  93
HARRISBURG*    SUNNY     89  70  53 CALM      30.05F HX  94
ROBINSON*      MOSUNNY   88  70  54 S9        30.04F HX  93
CARMI*         MOSUNNY   91  68  45 SW5       30.03F HX  95
$$

ABBREVIATIONS USED IN REMARKS
   TC - TEMPERATURE IN CELSIUS
  WCI - WIND CHILL INDEX
   HX - HEAT INDEX
  VSB - VISIBILITY
$$




USA.gov is the U.S. government's official web portal to all federal, state and local government web resources and services.